RH
82 83 82 81 81 78 74 67 62 57 51 43 37 32 28 27 26 25 24 24 22 22 22 21 22 22 21 22 21 20 19 16 15 16 19 21 20 17 14 13 14 14 13 16 16 17 23 37 65 92 103 108 100 74 59 69 85 97 104 102 98 99 98 99 95 60 21 21 42 54 57 55 49 46 49 52 47 38 32 32 31 28 25 25 26
84 86 86 86 86 85 81 75 68 65 61 57 52 46 38 32 29 28 26 26 25 25 25 25 26 27 28 30 29 27 25 22 20 21 23 25 24 21 17 14 14 14 13 13 13 14 16 16 25 50 78 100 108 92 69 60 67 82 98 104 99 97 99 99 100 84 46 18 18 33 52 63 60 53 53 59 62 59 52 44 38 34 33 32 28
86 87 85 82 81 81 78 73 70 68 67 64 60 56 51 45 41 40 38 36 33 31 31 32 34 35 34 34 33 31 31 29 28 27 28 29 27 23 20 16 14 13 12 13 13 12 13 15 14 18 35 64 94 104 91 71 63 71 87 100 101 98 100 102 99 91 68 38 17 14 28 49 60 61 61 64 70 75 76 72 63 54 54 55 46
80 80 80 79 77 76 76 76 76 75 72 68 63 57 55 52 48 48 49 48 46 43 42 42 42 41 38 35 32 30 31 30 31 31 30 30 27 23 19 16 14 13 12 11 12 12 12 12 14 14 13 24 51 83 99 90 73 69 77 91 97 98 102 100 90 80 68 54 37 17 11 25 40 49 59 66 71 76 82 88 91 85 80 82 76
79 81 81 80 79 78 77 77 76 75 73 71 67 60 55 52 50 47 46 44 43 42 42 41 40 39 37 34 32 31 32 32 32 32 30 26 22 18 16 14 13 12 12 12 10 11 13 11 11 13 14 13 17 37 70 92 90 79 76 80 85 89 91 89 82 72 61 62 60 37 14 12 20 27 38 49 58 64 66 72 87 96 93 91 89
86 86 84 81 79 78 77 76 76 76 76 74 72 66 59 54 49 46 43 40 36 33 31 30 30 30 31 32 33 36 35 33 30 28 24 19 16 14 13 12 12 12 11 12 11 10 11 12 12 11 12 14 13 13 26 56 85 94 87 78 77 81 78 76 80 77 64 62 71 63 36 16 11 16 21 27 35 44 45 45 57 75 84 84 82
85 83 79 76 76 78 79 80 80 80 81 80 77 69 58 47 40 40 42 40 35 32 30 32 32 33 34 36 37 37 32 26 22 20 17 14 12 12 12 11 11 12 11 10 11 11 10 10 11 11 11 11 13 14 11 19 45 80 97 91 80 79 81 76 76 81 76 65 66 75 68 40 16 10 15 18 22 29 34 32 32 42 57 67 72
75 75 76 78 81 86 89 89 89 88 85 80 71 61 51 44 42 45 46 44 43 44 42 39 38 37 37 36 34 30 25 19 16 15 14 13 13 12 13 14 13 12 12 12 10 10 11 10 9 9 11 11 9 12 14 11 14 36 73 97 95 87 88 87 80 81 87 81 70 73 80 71 45 20 11 15 20 23 25 24 24 26 35 46 56
79 83 89 93 96 99 99 97 93 86 75 66 61 57 53 51 52 53 54 54 55 52 44 37 36 36 35 32 27 22 18 15 14 14 14 14 14 16 16 17 17 16 14 13 12 11 10 11 11 9 9 10 10 9 10 13 12 11 30 68 97 101 96 95 91 87 90 95 89 76 72 81 80 54 24 15 18 20 18 19 23 24 26 33 38
93 95 101 103 102 98 93 86 77 66 59 59 61 61 62 64 66 67 66 63 57 49 40 35 33 32 29 24 20 17 16 16 16 16 16 16 17 19 19 18 17 17 16 15 13 13 11 10 10 10 9 8 9 10 9 10 13 12 10 27 65 96 105 102 98 96 95 98 101 92 74 75 92 90 61 30 18 18 17 17 21 20 19 27 30
97 99 99 95 87 77 69 64 59 56 59 66 69 68 69 69 69 68 64 57 49 40 33 29 26 23 21 19 18 18 18 18 18 17 17 18 18 18 18 18 17 16 16 16 14 13 12 12 10 9 10 10 8 8 10 9 9 12 12 9 25 62 96 108 103 99 100 99 101 102 90 78 84 97 92 64 33 22 20 17 17 17 17 23 25
96 92 83 72 65 62 62 64 67 70 76 80 79 74 66 58 53 51 47 40 34 29 24 21 20 18 18 19 19 18 18 17 18 19 18 18 19 18 17 17 17 17 15 15 15 14 13 12 12 10 9 9 9 8 8 9 8 8 12 10 9 26 62 97 108 102 100 101 102 102 101 95 85 83 96 95 61 30 24 22 16 14 17 21 23
77 71 68 68 73 79 83 84 84 83 82 78 73 65 55 47 42 37 31 27 24 22 20 19 18 18 18 18 17 17 17 17 16 17 18 17 17 18 18 18 17 17 16 14 14 14 14 12 11 11 10 8 9 9 8 8 9 8 9 11 10 10 25 64 98 107 101 101 105 103 101 105 99 82 83 95 81 49 32 27 21 16 15 18 21
67 72 79 87 94 97 94 89 83 76 69 62 55 48 43 38 33 27 23 22 20 19 19 18 18 18 17 18 18 17 17 17 16 16 16 16 17 17 18 19 18 17 16 15 13 12 13 13 12 11 11 10 9 10 9 8 8 8 8 8 11 10 9 27 66 99 106 100 102 105 101 101 106 96 78 74 80 72 50 34 27 21 15 16 20
81 87 94 99 100 95 87 78 69 59 51 44 38 34 30 28 25 22 21 20 19 19 19 18 18 18 17 17 18 18 17 16 16 16 15 15 16 17 17 18 19 18 16 14 13 12 10 11 12 11 11 11 11 10 10 9 8 8 9 7 8 11 10 10 29 68 99 102 97 102 104 100 102 105 90 69 70 76 64 45 35 28 19 16 20
90 95 100 101 94 84 74 64 52 42 37 33 29 27 25 24 22 21 20 20 20 19 19 18 18 17 17 17 17 17 17 16 15 16 16 16 16 17 18 18 17 16 15 13 11 11 11 10 10 10 10 10 10 9 9 9 9 8 8 9 7 7 11 10 10 29 67 96 102 100 102 102 101 105 101 83 71 71 64 50 44 44 35 21 18
91 94 94 90 81 71 61 52 43 38 36 33 28 25 24 23 22 21 21 20 20 19 18 18 18 17 17 17 18 17 17 16 16 15 16 16 17 17 16 16 15 13 12 12 11 10 10 10 9 9 9 9 9 9 8 8 9 9 7 8 9 7 8 10 10 10 28 63 93 101 101 102 103 103 100 93 84 74 62 56 59 65 60 38 19
79 81 80 78 73 62 52 46 43 42 39 34 28 25 24 23 21 20 19 18 18 18 18 17 17 17 18 17 17 17 16 16 16 17 17 16 16 16 14 13 13 12 11 11 10 10 10 10 9 9 9 9 8 8 8 7 7 9 8 7 8 8 7 7 10 10 11 27 59 87 100 102 102 102 97 95 93 81 70 76 80 74 72 63 36
66 70 74 76 70 58 48 44 43 40 36 31 27 25 22 20 18 17 17 17 18 17 17 17 17 17 17 16 16 17 17 18 17 16 16 15 13 12 12 11 11 11 10 10 9 10 9 9 9 8 8 8 8 8 8 8 7 8 8 8 7 8 8 7 7 10 11 13 28 57 85 98 103 104 100 96 94 84 78 93 99 83 83 93 69
63 69 74 73 65 53 44 39 36 32 30 27 24 21 19 17 17 16 16 16 16 16 16 17 17 17 17 16 17 17 16 16 15 14 12 12 11 10 10 11 11 10 10 10 9 9 9 8 8 8 7 7 8 8 7 7 8 8 8 8 8 7 7 7 7 7 10 11 14 28 55 80 95 103 104 99 94 88 84 95 107 100 96 104 84
68 72 71 63 51 41 35 31 28 27 25 23 20 17 16 16 16 16 16 15 15 16 16 16 17 18 18 16 16 15 14 13 12 12 11 10 10 10 10 10 11 11 10 10 10 9 9 8 7 7 8 7 7 8 8 7 7 8 8 8 8 8 7 7 7 7 7 10 12 15 28 49 69 85 100 102 95 88 85 88 96 103 107 107 87
73 69 57 44 37 33 29 26 25 24 22 19 18 16 16 16 15 15 15 16 16 16 16 17 17 17 16 15 13 12 12 11 11 11 11 11 10 10 10 10 11 11 11 11 11 10 9 9 8 7 7 8 8 8 8 7 7 8 8 8 8 8 7 7 7 7 7 8 11 13 16 26 41 59 82 100 98 85 81 82 82 92 108 109 87
64 53 40 33 32 29 25 23 21 20 18 17 16 16 15 14 15 15 15 15 16 16 16 16 16 15 14 13 12 11 11 11 11 11 11 12 12 11 12 12 12 12 13 13 12 11 9 8 8 8 8 8 8 8 8 8 8 7 8 8 8 8 7 7 7 7 7 7 9 12 13 16 26 38 57 84 98 86 76 79 78 78 93 102 91
47 39 34 32 29 24 21 20 18 17 17 16 15 15 14 14 15 15 15 15 15 16 15 14 13 13 12 12 12 12 12 11 11 12 12 12 13 13 12 12 11 11 12 13 13 12 11 9 8 8 8 8 8 9 8 8 8 7 8 8 8 8 8 7 7 7 7 7 7 10 13 13 18 28 37 60 87 91 81 80 79 74 80 93 101
39 36 33 29 24 21 20 19 18 17 17 15 14 14 14 15 15 15 15 15 15 14 13 12 12 12 13 14 13 13 13 12 11 11 11 12 12 12 11 11 11 10 10 11 12 11 11 10 8 8 8 7 8 9 8 8 8 7 8 8 8 8 8 7 7 7 6 8 7 7 12 13 13 21 27 39 68 92 92 84 80 77 77 83 95
37 33 28 23 20 20 20 19 18 18 16 14 14 14 14 15 15 15 14 13 12 11 11 11 12 13 14 14 14 13 12 12 12 12 12 12 11 11 11 10 10 10 9 9 10 10 10 10 9 8 8 7 7 8 8 8 8 7 8 8 7 8 9 7 8 7 6 8 8 6 9 12 12 16 22 27 47 81 99 90 79 78 79 76 78
33 28 23 21 20 20 19 19 19 17 15 14 14 13 14 14 14 14 13 11 10 11 12 12 13 14 14 14 13 13 12 12 13 13 12 12 11 10 10 10 9 9 9 8 9 9 9 9 8 8 8 7 7 7 7 8 8 8 8 8 7 8 9 8 7 8 6 6 8 7 7 11 11 13 18 21 33 66 97 97 84 83 83 76 72
26 23 21 20 19 18 18 18 18 16 15 14 14 13 13 13 12 11 10 10 11 12 13 14 14 14 14 14 12 12 13 13 13 13 12 12 12 10 9 9 8 7 7 8 8 8 8 9 8 8 8 7 6 7 7 7 8 9 8 8 8 8 8 8 7 8 8 6 7 8 6 9 11 12 15 19 24 52 91 104 96 95 90 76 71
21 20 20 19 18 18 17 17 16 15 14 14 14 14 12 11 11 11 10 11 12 13 14 14 15 15 14 14 12 12 14 14 13 13 12 12 11 11 9 8 7 7 7 6 7 7 8 8 8 7 7 8 8 7 8 7 8 9 8 8 9 8 8 9 8 8 8 7 6 8 7 7 10 11 14 18 20 39 80 105 105 104 100 86 78
20 19 19 19 19 18 16 15 14 14 14 15 14 13 11 9 9 11 13 13 12 12 13 13 15 16 15 14 12 13 16 16 13 12 12 13 15 15 13 11 9 7 7 6 6 6 6 6 8 8 7 8 8 8 8 8 7 9 9 8 9 8 8 9 9 8 9 8 6 7 7 7 9 10 13 18 18 30 67 100 106 103 103 98 92
19 18 18 20 19 16 14 14 14 14 14 14 13 12 11 11 10 10 12 13 12 12 13 14 15 16 15 14 14 15 16 16 15 16 17 19 21 21 18 16 13 9 7 7 5 6 6 6 7 8 7 8 9 8 8 9 7 8 9 8 9 9 8 8 9 8 10 9 7 7 7 6 8 9 11 16 17 24 54 90 105 104 102 101 101
18 17 18 19 17 15 14 14 14 14 14 12 11 12 12 13 13 11 11 12 12 12 13 14 15 16 14 14 16 16 15 17 22 27 30 30 29 25 20 17 15 11 9 8 6 6 6 5 6 8 8 8 9 8 8 9 9 9 9 9 9 9 8 8 9 9 10 10 8 7 7 6 8 9 10 15 16 21 45 79 99 104 102 101 102
19 19 20 19 16 14 15 15 14 13 13 11 11 13 13 14 15 14 12 12 12 12 13 15 16 16 15 16 17 16 18 25 32 38 40 39 37 32 24 19 17 14 11 9 8 7 6 6 6 8 8 9 9 9 9 10 10 10 9 9 9 9 8 8 9 10 11 11 9 8 7 6 7 8 9 14 15 18 38 72 94 100 104 106 106
25 23 20 17 16 15 15 15 14 13 13 13 13 14 15 15 15 15 14 14 13 12 13 14 17 18 17 15 16 19 28 39 46 49 50 51 50 42 31 24 21 17 13 11 10 9 8 7 7 8 9 10 10 10 10 10 10 10 10 9 9 9 8 9 10 10 12 12 10 9 7 6 7 8 8 12 16 17 32 65 91 99 103 107 107
27 22 18 16 16 16 15 15 14 13 14 15 15 15 15 15 15 15 15 15 14 14 14 15 17 18 16 14 19 31 43 52 56 59 63 68 66 55 41 29 23 20 17 14 12 11 10 10 9 10 10 10 11 11 11 11 11 11 11 10 10 9 9 9 10 10 12 12 11 10 9 6 6 8 8 10 14 16 28 57 86 98 103 108 109
23 19 17 16 16 16 15 14 14 15 16 16 16 16 16 15 15 15 15 15 15 16 16 16 15 15 14 17 28 43 56 62 63 69 77 82 79 70 57 42 30 24 21 17 14 14 13 12 12 12 12 12 12 12 12 11 11 11 11 11 11 11 10 10 11 11 12 13 12 11 10 8 6 7 8 10 14 15 25 50 78 95 104 108 107
20 18 17 17 16 15 14 14 15 16 17 17 16 16 16 16 16 16 15 16 17 17 16 15 14 14 17 26 39 54 64 69 73 80 87 88 85 81 75 60 42 29 25 22 19 16 15 15 15 15 14 14 14 13 13 13 12 11 12 12 11 12 11 10 11 13 13 13 13 12 10 9 8 7 6 9 13 15 23 43 69 89 101 106 104
19 19 18 17 16 15 15 16 17 17 16 16 16 16 16 16 16 16 16 17 17 16 15 14 14 16 23 38 54 64 71 78 84 88 91 91 89 88 89 82 63 42 31 27 24 21 19 18 18 17 16 16 16 15 14 14 13 12 13 13 12 13 13 12 16 23 22 15 13 13 12 9 9 8 7 8 12 15 22 38 60 81 97 103 103
19 19 18 16 16 16 17 17 17 17 17 16 16 16 17 17 16 17 18 17 16 15 15 15 17 20 29 48 63 70 77 87 90 88 90 95 94 93 97 99 86 65 48 36 30 27 25 21 20 20 19 18 18 18 16 16 16 15 15 13 12 13 13 13 21 35 35 22 13 12 13 11 10 8 7 8 11 14 20 32 51 72 91 103 105
19 18 17 16 16 17 18 17 17 17 17 17 17 17 17 17 17 17 17 16 15 15 16 17 20 24 35 54 68 74 82 93 94 89 90 93 94 97 103 104 97 86 71 54 40 34 32 29 25 23 22 22 21 20 20 19 18 16 15 15 14 14 12 12 18 28 30 23 14 11 11 11 11 10 8 8 10 14 19 27 42 61 82 98 104
18 17 17 18 18 18 18 17 18 18 18 18 18 17 17 18 18 17 16 16 16 17 18 20 22 25 36 55 70 76 83 91 93 91 88 84 84 95 104 102 96 94 90 78 60 43 36 38 35 29 27 27 25 23 24 23 21 20 20 18 16 16 16 16 18 21 21 18 14 10 10 10 11 10 9 8 9 13 18 24 35 50 68 86 98
17 18 18 19 19 19 18 18 19 19 19 18 18 18 18 19 18 17 17 18 19 19 19 21 24 26 36 53 68 76 82 88 91 91 89 82 80 88 96 96 94 95 97 95 83 59 41 41 45 41 36 32 30 33 37 37 36 36 32 26 28 35 33 24 18 17 16 14 12 10 9 11 11 10 10 10 9 12 17 23 30 41 54 72 91
19 20 20 19 19 19 19 20 20 20 20 19 19 19 20 19 17 17 19 21 21 21 19 21 24 27 36 53 68 77 82 87 88 88 89 85 81 85 91 93 94 95 95 97 96 77 51 42 50 55 51 46 50 58 60 57 61 69 65 56 58 64 55 37 25 20 16 13 12 10 9 11 11 10 10 10 11 12 16 21 28 37 47 61 80
21 21 19 19 20 20 21 21 21 21 21 20 20 21 20 18 18 20 22 22 23 23 22 22 23 26 37 55 72 78 81 82 83 85 87 86 85 89 92 89 90 93 90 88 94 87 61 46 56 70 70 70 80 87 81 76 84 96 95 87 83 78 63 47 36 27 18 13 11 11 10 11 12 11 11 12 12 13 16 20 26 34 43 54 67
21 20 20 21 21 21 22 22 21 21 21 21 22 21 20 19 20 23 25 26 27 28 28 26 23 27 41 61 74 76 73 72 75 82 86 88 91 95 93 88 91 94 83 76 84 85 65 52 63 79 84 90 100 102 96 94 98 101 101 100 93 80 66 56 45 33 24 19 17 15 13 12 11 11 12 13 13 12 15 20 25 32 41 50 59
20 20 21 22 22 22 23 23 22 21 22 22 22 21 19 20 24 27 31 31 29 29 31 29 25 31 50 69 78 75 66 63 69 79 85 90 96 99 94 93 97 94 80 72 77 76 64 61 74 87 93 100 105 102 98 100 101 99 101 102 92 77 71 67 54 38 29 24 22 20 17 13 12 12 13 15 17 16 15 18 24 31 41 50 56
21 21 22 23 23 24 24 23 22 23 23 23 23 21 21 23 27 32 37 37 33 32 35 33 32 44 65 79 80 73 63 59 67 77 85 93 100 100 97 99 100 92 81 75 72 69 70 80 91 96 100 104 104 100 99 101 101 100 102 99 88 81 80 73 54 36 28 23 20 19 16 13 12 14 14 17 21 23 21 22 25 31 41 55 66
22 23 23 24 24 25 25 23 22 24 25 24 22 22 23 27 33 40 45 43 38 38 40 37 41 62 84 88 79 69 64 64 71 82 91 98 101 98 98 102 96 78 66 65 68 74 87 99 102 101 104 105 102 99 99 98 98 100 102 99 93 89 83 67 45 31 26 22 18 16 15 14 14 14 15 17 22 26 30 32 34 42 58 76 88
23 24 24 24 24 25 24 23 23 26 26 24 22 23 26 32 38 47 54 52 45 43 46 50 60 81 96 91 77 71 72 75 82 91 97 99 97 97 100 103 92 73 63 67 77 89 99 102 100 101 105 104 100 100 101 99 98 100 101 102 103 101 91 75 54 36 25 21 20 17 16 16 17 16 16 17 18 24 34 44 53 65 82 95 100
24 24 24 24 25 25 23 23 25 27 27 24 22 24 30 37 43 52 62 66 59 53 59 72 84 94 96 88 78 79 85 89 94 99 100 96 95 100 106 106 100 93 90 92 97 101 101 100 99 101 102 101 101 102 102 101 102 103 103 104 106 103 96 88 73 50 30 21 21 22 22 21 18 18 20 22 21 22 30 44 59 76 91 100 103
24 24 24 25 25 24 23 24 27 29 28 25 23 26 33 42 49 57 69 75 72 69 77 90 95 93 90 86 83 86 95 101 103 104 101 97 98 103 106 104 102 103 103 102 102 102 101 101 101 100 100 100 102 102 102 102 103 103 103 105 105 101 96 95 92 79 57 34 22 21 23 23 23 28 37 42 41 35 33 37 48 63 78 89 97
Wind_Speed
20 20 21 22 24 26 27 28 29 29 31 31 32 33 34 35 35 36 37 37 38 39 40 40 41 42 43 44 45 46 47 47 46 46 46 46 47 48 49 51 53 53 53 55 56 57 57 58 59 58 57 56 55 54 53 50 46 44 45 42 38 36 37 39 41 42 43 45 47 45 44 44 44 43 41 39 38 37 35 34 34 33 32 31 31
22 23 25 26 27 28 29 30 30 31 32 34 35 36 37 37 38 38 39 40 41 41 42 43 44 45 45 45 46 46 47 48 48 49 49 50 50 50 50 51 53 55 55 56 57 57 58 60 61 62 62 62 61 58 56 54 53 50 48 46 41 36 35 39 44 45 44 45 48 48 46 46 46 45 43 42 40 39 38 37 36 36 34 33 33
26 27 29 30 30 31 32 33 34 35 36 36 37 38 38 39 40 41 42 43 43 44 45 45 46 46 46 46 46 46 47 47 49 50 51 52 52 52 52 53 54 55 56 57 58 59 60 60 62 63 65 66 67 65 61 58 58 56 53 50 46 41 37 38 43 47 47 46 48 50 49 48 49 48 46 44 43 42 41 39 39 38 37 36 35
30 31 32 33 35 36 36 37 38 39 39 39 39 40 40 41 42 43 44 45 45 46 47 48 48 49 49 49 49 49 49 49 50 51 52 53 53 54 54 54 55 56 57 57 58 59 61 62 63 63 65 68 70 70 68 65 63 62 60 58 55 52 49 46 45 48 49 47 47 50 51 50 51 50 49 48 46 45 44 43 42 41 40 39 37
34 35 36 37 38 39 40 40 41 41 42 42 43 44 45 45 46 47 47 48 49 49 50 51 52 53 53 52 52 51 51 51 52 52 53 54 55 56 55 55 55 55 56 56 57 58 60 62 63 64 65 67 70 72 73 72 69 67 66 65 64 62 61 57 54 54 54 50 47 48 50 51 52 52 51 51 49 48 48 46 45 44 43 42 40
38 38 39 40 41 41 42 43 44 45 45 47 48 49 49 50 51 52 53 53 53 53 54 54 54 55 54 54 53 53 53 53 54 54 55 55 56 55 55 54 53 54 54 55 55 56 58 60 62 63 65 67 69 71 74 76 75 73 71 70 69 68 66 64 61 60 59 55 50 48 49 51 52 52 52 52 51 50 50 49 48 47 46 45 43
40 41 41 42 43 44 45 46 48 49 50 51 53 54 55 55 56 56 56 56 56 55 55 56 56 55 55 55 55 55 56 56 56 56 56 55 55 55 54 53 53 52 53 53 54 55 56 58 60 61 63 66 69 71 73 76 78 79 77 74 73 71 70 67 65 64 62 60 55 50 49 51 52 52 52 52 52 52 52 51 49 48 47 47 46
43 43 43 44 45 46 48 50 51 53 54 56 57 57 58 58 57 57 57 57 56 56 57 57 57 57 57 57 58 58 59 58 58 57 56 55 54 54 54 53 53 52 52 52 53 53 55 56 58 59 61 64 67 70 73 74 77 81 82 80 77 75 73 71 69 67 66 64 60 55 51 50 52 53 52 52 54 54 53 52 50 49 48 48 47
46 45 46 47 48 50 52 53 55 57 58 58 59 59 59 59 59 59 59 58 58 58 59 59 59 60 60 60 61 61 60 60 58 57 56 54 53 52 52 52 52 52 52 52 52 53 54 55 56 58 60 62 65 68 71 74 76 79 83 84 82 79 77 75 72 71 69 67 65 61 56 53 53 54 53 53 55 55 53 51 52 51 49 49 49
48 48 48 50 52 54 55 56 57 58 59 60 60 60 61 61 62 62 61 61 61 62 62 62 62 62 62 62 62 61 60 59 57 56 54 52 51 51 51 51 51 51 52 52 52 52 53 54 55 57 59 61 63 66 69 73 75 77 81 84 85 83 81 79 76 74 73 71 69 66 61 57 56 55 55 54 55 55 53 52 53 51 49 49 50
50 50 52 54 55 56 57 57 58 59 60 61 62 62 63 63 63 63 63 64 64 64 64 64 63 62 62 61 61 59 58 57 55 54 52 51 51 50 51 51 51 51 51 52 52 52 52 53 54 56 58 60 62 65 67 70 74 77 79 82 86 87 85 82 80 78 76 73 72 70 66 63 61 58 57 56 55 54 54 53 52 50 49 49 50
52 53 55 56 57 57 58 58 59 60 62 63 64 65 66 66 65 65 65 65 65 64 63 62 61 60 59 59 59 58 57 56 54 53 52 52 51 51 51 51 51 50 50 50 51 52 52 52 53 55 57 59 60 63 66 69 71 75 78 80 83 87 89 86 83 81 79 76 75 73 70 68 66 63 60 59 57 54 53 51 51 51 49 49 50
54 54 55 56 57 58 59 60 61 62 63 65 66 67 67 66 65 64 63 62 62 61 60 59 59 58 58 58 58 58 58 57 55 54 53 52 52 51 51 52 52 52 51 50 50 51 51 52 52 53 55 57 59 61 64 67 70 72 76 79 81 84 89 90 88 85 82 80 77 76 74 73 71 67 64 61 59 55 52 51 52 51 50 50 50
53 53 54 56 57 59 61 62 63 64 65 65 66 66 65 64 63 61 60 60 59 59 59 59 59 59 59 59 59 60 59 58 56 55 54 53 52 51 52 52 52 53 53 52 51 51 51 51 51 52 54 55 57 59 61 64 68 70 73 77 80 82 86 91 92 89 86 83 80 79 78 76 74 71 68 64 60 56 53 52 51 50 50 50 50
53 54 55 57 59 61 63 64 65 64 64 63 62 61 60 60 59 59 59 59 59 60 60 61 61 61 60 60 60 61 61 59 57 56 55 53 52 52 52 53 53 54 54 54 53 52 51 51 51 51 53 53 55 56 58 61 64 68 71 75 78 81 84 88 93 94 91 87 84 82 81 78 76 74 71 66 63 60 56 53 50 49 50 51 52
55 56 58 59 61 62 63 63 62 61 60 60 59 58 58 58 58 59 60 61 61 61 62 62 63 62 62 61 61 61 62 60 58 56 55 54 53 52 53 53 54 54 54 54 54 53 52 52 51 51 52 52 53 54 55 58 61 65 68 72 76 80 83 85 90 94 95 92 88 86 83 80 78 77 74 69 66 63 59 54 51 50 50 52 53
57 58 59 60 61 61 61 60 60 60 60 59 59 59 59 59 60 61 62 63 63 63 63 64 64 63 63 62 62 61 62 61 59 56 55 54 53 53 53 54 54 54 54 54 53 53 53 52 52 52 51 52 53 53 53 55 58 62 66 70 74 78 82 84 86 90 94 95 93 90 87 82 79 78 76 72 69 66 61 56 54 52 51 50 52
57 58 59 59 60 60 60 59 59 60 61 61 61 61 61 61 62 62 62 63 64 64 64 65 65 64 63 62 62 61 61 60 59 57 56 56 55 55 54 54 54 54 54 53 53 53 53 53 52 52 51 51 51 52 53 54 56 60 63 67 71 75 80 83 84 86 90 93 95 95 91 86 81 79 78 75 72 68 63 60 58 55 51 49 51
56 57 58 59 59 60 60 59 59 61 61 62 62 63 63 63 63 63 63 63 63 64 64 64 64 64 62 61 61 60 59 60 60 59 58 57 56 55 54 54 54 55 54 53 53 53 53 53 53 52 51 51 51 51 53 54 55 58 62 65 68 73 78 80 81 83 86 90 94 96 95 91 85 81 78 77 75 70 65 63 61 56 52 50 51
56 57 58 59 60 60 60 60 61 62 62 62 63 64 64 64 64 64 63 63 63 63 63 62 62 62 62 61 60 60 59 59 60 60 59 58 57 55 54 53 54 54 54 53 53 54 54 54 53 52 51 50 51 51 52 53 54 56 59 63 66 71 75 77 78 81 84 88 91 95 97 95 91 84 80 78 77 73 68 66 63 58 53 52 51
56 57 58 59 60 60 60 61 62 62 62 63 64 65 65 64 64 64 63 63 62 62 61 61 60 60 61 61 60 60 60 59 59 60 59 58 56 55 54 53 54 54 54 54 54 55 55 54 53 52 51 50 51 51 52 52 53 55 58 61 65 69 71 73 75 79 82 85 89 92 95 96 95 90 84 80 79 76 72 68 65 60 55 53 51
56 57 58 59 59 60 61 62 62 62 63 63 64 64 64 64 63 63 62 61 61 60 60 60 59 60 61 61 61 60 60 59 59 59 59 58 57 56 55 55 55 54 55 56 56 56 56 55 54 52 51 50 51 52 52 52 52 54 57 60 63 66 68 69 73 76 79 83 87 89 92 94 95 93 89 84 82 80 75 71 66 62 58 54 52
56 57 58 58 59 60 61 61 61 62 62 62 63 63 63 62 62 61 60 59 58 59 59 59 59 60 60 61 61 60 59 59 59 59 59 59 58 58 57 57 57 56 56 57 59 59 58 57 55 53 51 51 51 52 52 52 52 53 56 58 60 64 66 67 70 74 77 80 83 87 90 91 93 94 92 87 83 80 77 73 66 62 59 56 52
57 57 57 58 59 60 60 61 61 61 62 62 62 62 62 61 61 60 59 57 57 57 58 58 58 59 59 60 60 60 60 60 60 60 60 60 60 60 60 60 60 59 58 58 60 61 61 59 57 54 52 52 52 52 52 53 53 53 54 56 58 61 64 66 68 71 74 77 80 85 88 90 91 93 92 89 84 79 77 74 68 63 61 59 54
57 57 57 58 59 60 61 61 62 62 62 62 62 62 61 60 59 59 58 57 57 57 57 57 57 57 58 59 60 61 62 62 61 61 60 60 61 61 61 61 61 60 59 60 62 63 63 62 59 57 55 53 52 52 52 53 53 53 53 55 57 59 62 65 66 68 71 74 78 82 86 88 89 90 91 88 83 78 76 75 71 67 64 61 57
57 57 58 59 60 61 62 62 63 63 63 62 62 61 59 58 57 58 57 56 56 56 55 55 56 57 58 60 61 63 63 63 61 61 60 60 60 59 59 59 59 59 59 59 61 63 64 64 62 59 57 55 53 52 52 52 52 52 53 53 55 57 60 63 64 66 68 71 75 79 84 87 88 88 88 88 84 80 77 76 73 70 66 63 60
57 58 59 61 61 62 62 63 63 64 63 63 61 60 58 56 55 56 56 56 55 55 55 56 56 58 59 61 62 63 62 61 59 58 58 58 57 56 55 55 55 55 55 56 57 60 62 64 64 62 59 55 53 52 51 51 51 52 53 52 53 55 58 60 62 64 65 69 72 76 81 84 86 86 87 86 85 82 78 75 74 71 69 66 62
58 59 61 62 62 63 63 63 63 63 63 62 61 59 57 55 54 55 55 54 54 55 56 57 58 59 60 61 62 61 59 57 55 53 53 53 53 52 51 50 49 49 50 50 52 54 58 60 62 62 60 57 54 52 51 50 51 52 52 51 51 53 55 57 60 62 64 66 70 73 77 81 84 85 85 85 85 83 79 76 74 73 71 67 63
59 60 62 63 63 63 63 63 62 62 61 60 59 58 56 54 53 54 56 55 54 54 56 57 59 59 60 61 59 56 54 53 51 48 47 46 46 46 46 45 44 43 44 45 46 49 52 55 57 58 58 57 55 53 51 50 50 51 51 51 50 51 53 55 58 60 62 64 67 70 74 78 82 84 84 84 85 85 81 78 75 74 72 69 64
61 61 62 62 61 61 61 61 61 59 58 57 57 58 57 55 52 53 55 57 56 55 56 57 57 57 58 58 55 50 49 49 47 44 42 40 39 40 40 40 39 38 38 39 41 43 45 47 50 52 54 55 56 55 52 50 50 50 51 51 50 50 51 53 56 58 60 62 64 67 71 75 79 82 83 83 85 85 83 79 77 75 72 69 66
61 61 61 61 61 60 60 59 59 58 56 55 55 56 58 58 55 53 55 57 58 57 56 55 54 54 54 52 50 46 44 43 41 39 38 36 34 33 34 34 34 34 33 34 36 37 38 40 43 46 49 52 54 55 53 50 49 49 50 51 51 50 50 52 54 56 58 60 62 65 68 72 76 80 81 82 83 85 84 81 78 76 74 71 67
62 62 61 61 60 59 58 57 57 56 56 55 55 55 57 59 60 59 58 58 58 57 55 53 52 51 49 46 43 42 39 36 33 32 32 31 29 28 29 29 29 29 29 29 30 31 33 35 37 39 43 47 50 53 53 50 49 49 50 51 51 51 50 51 52 54 56 58 61 63 65 68 73 77 80 81 82 84 84 82 79 77 75 72 69
62 61 60 60 59 58 56 56 55 55 55 56 56 57 57 59 61 62 61 60 58 55 52 49 48 47 45 41 37 35 32 29 28 26 25 25 25 25 24 24 24 24 24 24 25 26 28 30 31 33 37 42 46 49 51 51 50 49 49 51 51 51 50 49 50 52 55 57 58 60 62 65 69 75 79 81 81 83 84 83 80 78 76 74 70
60 59 58 57 57 56 55 55 55 55 56 56 56 58 59 59 60 61 62 60 58 54 48 44 43 43 41 36 31 28 26 24 23 22 21 21 22 22 21 21 21 21 20 19 20 21 22 24 26 29 33 37 41 45 49 50 50 50 49 50 50 50 49 48 49 51 53 54 55 57 59 62 66 72 77 79 80 81 84 83 81 78 77 74 72
57 56 55 55 54 54 54 55 55 55 56 57 58 59 59 60 60 59 59 57 55 52 47 41 38 37 35 30 25 21 20 19 18 17 17 18 19 19 19 18 17 17 17 16 16 16 17 19 21 25 29 33 37 41 45 48 49 49 49 48 48 48 48 48 49 50 51 51 53 54 56 59 63 69 74 77 78 80 83 83 82 79 77 75 73
54 54 54 53 53 53 54 54 54 55 56 58 59 59 59 59 59 57 56 53 50 48 44 40 35 31 27 23 19 17 16 16 15 13 13 15 16 17 17 16 15 14 13 13 12 12 13 15 17 21 25 28 32 37 41 45 47 48 48 47 47 46 47 48 48 48 48 49 50 52 54 57 61 65 71 75 77 80 83 84 83 80 78 76 74
52 52 52 52 52 53 53 54 54 55 57 58 59 59 58 58 56 54 52 49 46 43 39 35 31 26 21 17 15 14 13 12 11 11 12 13 15 16 16 16 15 12 11 10 9 9 10 11 14 17 20 24 28 32 36 40 44 46 47 47 47 46 46 46 47 46 47 48 49 51 53 55 58 62 68 73 77 79 82 84 84 81 78 76 73
50 51 51 52 52 53 53 54 55 56 57 57 57 57 56 55 53 50 47 44 41 38 34 30 26 21 16 14 13 12 11 10 9 9 11 12 14 15 16 16 15 13 10 8 7 6 6 8 11 14 17 20 23 27 31 34 38 40 43 45 46 46 46 46 45 45 47 50 50 51 52 54 56 60 66 71 76 79 81 84 85 82 78 75 73
49 50 51 51 52 53 54 55 56 56 57 57 56 56 54 51 49 46 43 40 36 32 29 25 21 16 13 11 11 10 9 8 7 8 10 11 13 15 16 16 16 14 12 9 6 4 4 5 8 10 13 15 18 21 24 27 30 34 38 42 44 46 47 48 47 45 48 51 52 52 52 53 55 59 65 70 75 78 81 83 84 82 78 75 73
48 49 50 51 52 53 54 55 56 56 56 56 55 53 50 47 44 41 38 35 32 28 24 21 17 13 11 10 9 8 7 6 6 7 9 10 11 14 15 16 16 16 14 11 7 4 2 3 5 7 9 11 13 16 19 22 26 30 33 36 40 43 46 48 48 47 48 51 53 53 53 53 55 58 63 68 74 77 80 82 83 82 80 77 75
48 49 50 51 52 53 54 55 55 55 55 54 52 49 46 43 40 37 34 31 28 25 22 19 15 12 11 10 8 7 6 5 5 6 8 9 9 10 12 15 17 18 17 14 10 6 2 2 4 6 9 10 12 14 16 18 20 23 26 29 32 36 40 43 46 48 49 50 51 52 51 51 53 57 61 66 72 76 78 81 82 82 80 77 74
47 48 50 51 52 53 54 54 54 54 53 51 48 45 42 39 36 33 30 27 25 23 20 17 14 11 11 10 8 6 6 5 4 5 6 8 9 9 11 15 17 17 17 16 14 9 3 2 4 6 9 12 13 15 16 18 18 18 20 23 25 28 33 39 44 48 49 50 50 50 49 50 52 56 59 65 71 75 77 79 80 80 79 76 73
47 48 50 51 52 53 53 54 53 52 50 48 44 41 38 36 32 29 26 24 23 21 18 15 12 9 9 10 8 6 6 6 5 4 4 7 9 10 13 16 18 17 17 16 15 11 5 1 5 7 10 13 16 17 19 19 17 13 12 16 19 23 29 35 40 43 46 47 48 48 48 50 52 54 58 63 69 74 76 77 78 78 77 76 74
47 48 49 50 51 52 52 52 51 48 46 43 40 38 35 32 28 25 23 22 21 20 17 14 10 6 7 8 7 6 6 6 5 3 3 6 9 11 14 17 17 17 16 14 13 11 5 2 7 10 12 16 19 20 19 19 17 12 10 14 18 22 26 31 35 39 42 43 44 45 46 48 51 53 56 61 68 72 74 75 76 76 76 75 73
47 48 49 50 51 51 51 50 47 44 41 39 36 34 31 28 24 22 22 21 20 18 16 12 7 3 5 7 6 5 5 4 4 2 2 6 9 12 15 17 17 17 15 12 11 9 4 5 10 13 15 19 23 22 19 17 16 13 13 15 18 20 22 25 30 34 37 39 40 42 44 47 50 53 56 61 66 70 72 73 74 73 72 72 72
47 48 49 50 50 50 48 46 44 41 37 35 33 30 27 24 22 21 21 20 18 16 13 9 4 1 5 6 5 3 3 4 2 1 3 6 9 13 16 17 18 17 14 10 8 7 4 8 13 15 17 22 25 22 18 15 14 13 14 15 17 18 19 21 25 29 32 34 36 38 42 46 49 52 56 60 64 67 69 71 71 70 68 67 68
46 48 49 49 48 47 45 43 40 37 34 32 30 27 24 22 20 19 19 18 17 15 11 6 2 5 6 5 3 2 4 5 3 4 6 7 10 14 17 18 18 16 11 7 6 6 9 13 16 17 21 25 26 21 16 13 12 11 12 13 14 15 17 19 22 25 28 30 33 36 40 45 49 52 56 60 63 65 66 68 68 67 65 64 65
46 47 48 48 46 44 41 39 36 33 31 30 28 25 21 19 18 18 17 16 15 14 10 5 5 7 6 3 1 4 6 7 7 9 9 9 11 14 17 17 17 14 10 8 9 12 16 17 17 19 23 26 24 20 17 14 12 11 10 10 10 12 15 17 19 21 25 28 31 35 39 43 47 51 56 60 63 64 65 65 65 66 65 64 64
46 46 46 45 43 40 38 35 33 30 28 27 25 22 19 17 17 16 15 15 14 12 9 6 6 8 7 4 5 7 9 10 12 12 11 12 13 15 16 16 15 15 15 15 17 19 19 19 18 21 25 25 22 18 16 14 13 12 11 9 9 12 14 14 14 17 22 26 30 33 37 41 45 49 54 57 60 63 64 64 64 65 65 65 64
46 45 44 42 40 37 35 32 30 28 27 26 24 20 17 16 15 14 14 13 12 10 8 7 7 7 6 5 7 10 12 14 14 13 13 14 15 17 19 20 22 23 23 23 23 22 21 19 19 21 22 21 18 15 14 14 14 14 12 10 10 11 12 13 14 16 19 24 28 32 35 39 43 47 51 54 57 60 63 64 65 65 66 66 65
44 44 42 40 37 34 32 29 27 26 25 25 22 18 15 14 13 12 12 11 9 7 7 7 6 7 6 7 9 13 15 16 15 14 14 15 19 24 27 28 29 29 29 28 28 27 26 24 21 19 17 16 15 14 15 15 15 15 14 13 12 13 12 11 12 14 17 21 26 31 34 37 41 45 48 50 53 56 59 62 64 65 66 66 65
Wind_Direction
290 292 293 295 295 293 291 288 287 286 284 283 281 280 279 278 277 276 275 274 274 273 273 273 273 274 274 275 274 273 271 269 268 269 270 271 272 271 269 266 264 262 259 257 256 253 249 244 240 237 236 235 236 237 238 238 236 235 235 237 240 245 247 249 248 243 236 234 234 232 229 229 231 233 234 235 237 237 234 232 233 235 236 237 237
286 286 287 289 290 290 287 285 283 284 284 284 283 282 280 279 278 277 277 276 277 276 277 277 277 277 277 277 276 275 273 270 269 269 271 273 274 273 271 268 264 262 260 258 255 253 251 248 244 239 236 235 236 236 237 238 237 236 235 234 233 237 244 249 251 247 238 233 233 233 231 229 230 231 231 233 235 236 236 235 235 235 236 236 238
283 282 283 285 287 287 286 285 285 286 287 287 287 285 284 283 283 282 282 280 280 280 280 280 279 280 280 279 278 277 275 273 271 271 272 274 275 274 273 271 268 264 260 258 256 253 251 249 247 243 238 235 235 235 235 235 236 235 234 231 228 229 233 241 249 248 242 234 232 233 233 231 231 231 230 230 231 234 235 235 236 236 236 237 238
284 284 285 286 287 288 289 289 289 289 289 289 290 290 289 289 288 288 287 286 284 284 284 283 283 284 284 283 282 280 278 276 275 274 275 275 276 275 274 272 269 266 262 258 255 253 251 249 247 245 242 238 235 234 233 233 233 234 233 230 227 226 228 231 239 244 242 236 232 232 233 232 232 233 232 231 231 232 234 235 236 237 237 237 237
289 288 288 288 289 290 291 292 292 291 291 292 293 293 293 292 292 292 292 291 290 288 287 287 287 287 286 285 284 283 281 280 279 279 279 279 278 277 275 272 269 266 263 260 257 254 252 250 247 244 243 241 238 234 232 232 232 232 231 230 229 229 231 232 234 237 239 236 232 232 233 233 233 233 234 234 233 234 235 236 236 237 238 237 236
289 289 289 290 291 293 294 295 295 294 294 294 295 295 296 296 296 295 295 294 293 292 290 289 288 288 287 287 286 285 284 284 284 283 282 282 281 279 276 272 269 266 264 261 258 255 252 250 248 245 242 241 240 237 234 231 231 230 230 230 230 230 232 233 233 234 236 236 232 230 232 233 233 233 234 235 235 235 236 236 236 236 237 238 237
289 290 292 293 294 296 296 296 296 296 295 295 296 297 297 297 297 297 296 295 294 294 293 292 291 290 290 289 289 288 289 288 287 286 285 284 282 280 277 274 271 268 265 262 259 257 254 251 249 247 244 241 240 239 236 233 231 229 229 229 229 229 230 232 232 232 234 235 232 229 229 232 233 233 233 234 235 236 236 236 236 236 237 238 239
292 293 294 295 296 296 296 296 295 295 296 296 297 298 298 298 298 298 297 296 295 295 295 294 294 293 293 292 292 291 291 290 289 288 286 285 283 281 279 277 274 270 267 264 261 258 255 253 250 247 245 243 240 238 237 235 232 230 229 228 227 227 228 229 230 230 231 233 233 229 227 230 233 234 232 232 235 236 235 235 236 237 237 238 239
293 294 295 295 295 295 295 294 295 295 296 298 298 299 299 299 299 298 297 296 296 296 297 297 296 295 294 294 293 292 291 290 289 288 286 285 283 281 279 278 276 273 270 266 262 259 256 254 251 249 246 244 242 239 237 236 234 232 229 228 227 226 227 228 229 229 229 230 231 230 227 227 231 234 233 231 233 234 234 234 235 236 236 237 239
293 293 293 293 294 294 295 295 296 297 298 299 300 300 300 300 299 298 297 297 298 298 298 297 296 295 294 293 293 292 291 290 289 288 286 284 282 281 280 279 277 274 272 268 265 261 257 254 252 250 247 244 242 241 238 236 234 233 231 229 227 226 226 226 227 228 228 228 230 230 228 226 228 232 233 232 231 232 232 233 234 235 235 236 238
291 292 293 294 295 296 297 297 298 299 300 301 301 301 301 300 299 298 298 298 298 298 297 296 295 294 293 293 292 291 290 289 289 287 286 284 282 281 280 280 278 275 273 270 267 263 260 256 253 250 248 245 243 241 239 237 235 233 232 230 228 227 226 226 226 227 227 227 228 229 229 228 227 228 231 233 231 230 231 232 233 234 234 235 238
292 293 295 296 297 298 299 300 300 301 301 301 300 300 299 299 298 298 298 298 297 296 295 295 294 294 293 293 292 291 290 289 288 287 285 284 282 282 281 280 279 277 274 271 268 265 262 258 254 251 248 246 243 241 239 238 236 234 233 231 229 227 226 226 225 226 227 227 227 227 228 228 227 226 228 231 232 230 230 231 232 233 234 235 237
294 296 297 299 300 300 301 301 301 301 300 299 298 298 298 298 298 298 298 297 296 296 296 295 295 295 294 294 293 292 291 290 289 287 286 284 283 282 281 281 280 278 276 273 269 266 263 260 256 253 250 247 244 241 239 238 236 234 233 232 230 228 227 226 225 225 225 226 227 227 226 227 228 227 226 228 230 231 230 230 231 232 233 235 237
297 299 300 300 301 301 301 301 300 299 298 297 297 298 298 299 299 299 298 298 297 297 297 297 296 296 295 295 294 293 292 291 289 288 286 285 283 283 282 281 280 279 277 274 271 268 264 261 258 254 251 248 245 241 239 238 236 235 233 233 231 229 227 226 225 225 224 225 226 227 226 226 227 228 227 226 228 229 230 230 230 231 233 234 236
298 298 299 299 300 300 300 299 299 298 298 299 299 300 300 300 299 300 299 299 299 299 299 298 297 296 295 294 293 293 292 291 290 288 287 285 284 283 282 281 280 278 276 274 272 269 266 262 259 256 252 249 246 242 239 237 236 235 233 232 232 230 228 226 225 225 224 224 226 227 227 226 226 228 227 226 226 227 228 229 230 231 233 234 236
296 297 298 298 299 299 299 300 300 301 301 302 302 302 301 300 300 300 300 300 299 299 298 297 297 296 295 294 293 292 291 291 290 288 287 285 284 282 281 280 278 276 274 273 271 269 266 263 259 256 253 250 247 244 241 238 236 235 234 232 231 231 229 227 225 225 224 224 225 227 227 226 226 228 228 226 226 227 227 228 229 230 232 233 235
296 297 297 297 298 299 300 301 301 303 303 303 302 302 301 300 300 300 300 299 299 298 298 297 296 296 295 294 293 292 291 290 289 288 287 285 284 282 281 280 278 276 273 271 269 267 265 263 260 257 254 251 248 245 242 238 236 235 233 232 231 230 230 228 225 224 224 224 224 226 227 227 226 227 228 226 226 226 227 228 228 229 230 232 233
296 296 297 297 298 300 302 302 301 302 302 301 301 300 300 300 299 299 299 299 298 298 298 297 296 295 294 293 292 291 291 290 289 288 287 286 284 283 281 279 278 276 273 271 269 267 265 262 260 257 254 251 248 245 242 239 236 234 233 232 231 230 230 229 226 224 224 224 224 225 227 227 227 227 228 227 226 225 226 227 228 229 229 231 233
295 296 297 299 300 302 302 301 300 300 299 299 298 299 299 299 299 299 299 298 298 297 296 296 295 294 293 292 291 291 290 290 289 288 287 285 284 282 281 279 277 275 273 271 269 267 265 262 260 257 255 252 249 246 243 240 237 235 233 232 231 230 229 229 227 225 223 223 224 224 225 227 227 227 227 228 227 224 224 227 228 228 228 230 233
296 298 299 300 300 300 300 299 298 298 297 297 298 298 299 299 300 299 299 298 297 296 295 295 294 293 293 292 291 290 290 289 288 287 286 285 283 282 280 279 277 275 273 272 269 267 264 262 260 258 255 253 250 247 244 240 237 235 234 232 232 231 230 228 227 226 224 223 223 224 224 225 226 227 227 228 227 225 223 225 227 227 227 229 232
298 299 300 300 299 299 299 298 298 298 298 298 299 299 300 300 300 300 299 299 298 296 296 295 294 293 292 292 291 291 290 289 288 287 286 285 284 283 281 278 276 275 273 272 270 267 265 263 261 258 256 253 251 248 245 241 238 236 234 232 231 231 230 228 227 226 225 223 222 223 224 224 225 226 226 227 227 226 223 224 225 225 225 227 230
299 299 299 299 299 299 299 299 299 299 299 299 300 300 300 300 300 300 299 299 298 297 296 295 294 293 293 292 292 291 290 289 288 287 286 285 284 283 281 278 276 274 273 271 269 267 265 263 261 258 256 253 251 249 246 243 239 236 235 233 232 231 231 228 227 226 225 223 222 222 223 224 224 225 225 225 226 226 224 224 224 223 223 226 228
299 299 299 300 300 299 299 299 299 299 299 300 300 301 301 301 300 300 299 298 298 296 296 295 295 294 293 292 292 291 290 289 288 287 286 286 285 283 281 278 275 273 270 269 267 266 264 263 261 258 255 253 251 249 246 243 240 237 235 233 231 231 231 229 227 225 225 224 222 221 222 223 223 224 224 224 225 225 225 224 224 223 223 225 226
299 300 300 301 301 301 300 301 301 301 301 302 302 302 302 302 301 300 299 299 298 297 296 296 295 294 294 293 292 292 291 290 289 288 288 287 285 283 280 277 274 270 267 265 263 263 262 261 260 257 255 252 249 248 246 244 241 238 235 233 231 230 230 229 227 225 224 224 223 221 221 222 223 223 223 223 223 224 225 224 224 224 224 224 224
300 301 302 302 302 303 303 303 303 303 304 304 304 304 303 302 301 300 300 299 298 297 296 296 295 295 294 294 293 293 292 291 291 291 290 287 285 282 279 277 274 270 266 263 260 259 259 258 257 256 253 251 248 246 245 243 241 238 235 233 231 229 229 229 228 226 224 223 223 222 221 221 222 222 222 222 222 223 223 223 223 224 225 225 224
302 303 304 305 305 305 305 305 305 306 306 305 304 303 303 302 301 300 300 299 298 297 297 297 296 296 296 295 294 294 294 294 294 293 291 288 286 283 281 278 275 271 267 263 260 258 257 256 255 253 251 249 246 244 243 242 241 239 236 233 231 229 228 228 228 226 224 223 222 222 221 220 221 221 221 221 220 221 222 222 222 224 226 226 224
304 305 306 306 306 306 306 306 307 307 306 305 304 303 303 302 301 300 299 299 300 300 299 299 299 298 298 297 296 296 296 297 296 294 292 290 288 286 283 280 277 273 269 265 261 258 256 254 253 252 250 248 246 243 242 241 240 239 237 234 231 229 227 227 227 226 225 223 222 222 221 220 220 220 220 219 219 219 220 220 221 223 226 226 224
306 306 307 307 306 306 306 307 307 307 306 305 304 303 303 303 302 301 300 301 301 302 301 301 301 300 299 297 297 298 298 297 295 294 293 292 290 288 286 284 280 277 272 268 263 258 255 252 251 250 249 247 245 243 241 239 238 238 237 235 232 229 227 226 225 226 225 224 222 221 221 220 219 219 219 219 218 218 218 218 219 222 225 226 224
307 307 307 307 307 307 307 307 307 306 306 305 304 304 303 304 304 304 303 303 303 303 303 303 302 302 300 299 299 300 300 298 296 296 295 293 292 291 290 287 283 279 274 269 264 259 255 252 250 248 246 245 244 242 240 237 236 236 236 235 232 229 227 225 224 225 225 224 223 221 220 219 218 218 218 218 217 216 216 217 217 220 224 226 225
308 308 308 309 308 308 308 307 307 306 306 305 305 305 305 305 305 305 305 305 305 305 305 304 303 302 301 300 302 303 301 299 299 299 297 295 295 293 291 289 286 282 277 271 265 261 257 254 250 247 244 242 240 239 238 236 234 234 234 234 233 230 227 224 223 224 224 224 223 222 220 219 218 217 217 217 216 216 215 216 216 218 221 225 225
309 309 309 309 309 309 308 308 307 307 307 307 307 307 308 307 307 307 307 307 307 307 307 306 305 303 301 302 303 303 301 299 300 300 299 299 298 296 294 292 290 286 280 273 268 262 258 253 249 245 241 238 236 236 235 233 232 232 232 232 232 230 227 224 222 223 223 224 224 222 221 219 218 217 217 217 216 215 215 215 216 217 220 222 224
309 309 309 310 310 310 309 308 308 308 308 309 309 309 309 310 310 310 310 309 309 309 309 309 306 303 302 303 303 301 300 299 298 299 300 302 302 302 300 297 293 289 284 277 270 264 258 252 246 242 239 235 233 232 232 231 230 229 229 230 230 229 227 224 222 221 222 223 223 223 221 219 217 216 216 216 215 214 214 214 216 217 220 221 222
310 309 310 310 311 310 310 310 310 310 311 311 311 311 311 311 311 311 311 310 310 310 311 310 307 304 303 304 302 299 297 298 298 300 303 306 309 309 307 303 300 295 288 280 273 266 259 252 245 238 235 232 230 229 228 228 227 227 227 228 228 228 226 224 221 221 222 223 223 223 221 219 217 215 215 215 214 213 212 213 215 217 220 221 222
310 310 310 311 311 311 311 311 312 312 312 312 312 312 313 312 312 312 312 312 312 312 312 310 306 303 303 303 300 296 296 298 301 306 311 314 317 317 315 311 307 301 294 286 276 267 259 252 243 234 229 227 226 225 225 225 225 225 225 226 226 226 226 224 222 221 222 223 224 224 221 219 217 216 215 214 214 212 211 212 214 216 219 220 221
310 311 311 312 312 312 312 312 313 313 313 313 313 313 313 313 312 312 312 312 313 313 313 311 306 302 302 302 298 295 296 300 306 313 319 322 325 325 324 320 314 307 301 292 280 268 258 248 239 231 226 223 222 221 222 223 223 223 223 224 225 225 224 223 223 222 222 222 224 224 222 220 218 216 214 214 213 212 211 211 213 215 217 219 220
311 312 312 312 312 312 313 313 313 314 314 314 314 314 314 314 314 314 313 313 313 312 311 310 307 303 301 298 293 291 296 304 312 321 328 330 333 336 336 332 324 315 307 299 286 271 257 244 235 228 224 221 220 219 220 221 221 222 222 223 223 223 222 222 222 222 222 223 224 225 223 220 218 216 214 213 212 211 210 211 212 214 216 217 219
313 313 313 313 313 313 314 314 315 315 315 314 314 314 315 315 315 315 314 313 312 311 310 309 308 305 300 293 288 290 299 309 320 330 336 339 342 346 347 344 338 330 320 311 297 278 257 241 230 224 221 219 218 218 218 219 220 220 221 221 221 221 221 220 220 220 222 223 223 224 224 221 218 216 214 213 212 211 210 210 212 214 216 217 217
313 313 313 314 314 315 315 315 316 315 315 315 315 316 316 316 315 315 314 313 312 311 310 309 308 304 296 288 286 292 302 312 323 333 338 341 345 350 353 352 349 345 339 329 315 291 262 239 226 219 216 215 215 215 216 217 218 219 219 220 220 219 219 218 218 219 221 221 221 222 223 221 218 216 214 212 211 211 210 211 212 213 215 216 217
313 314 314 314 315 315 316 316 316 316 316 316 317 317 317 316 315 315 314 313 312 311 310 309 308 302 289 280 282 291 300 309 320 331 337 342 349 357 0 359 357 356 354 347 335 314 272 234 219 213 211 210 210 210 211 213 214 216 217 217 217 217 216 215 215 218 219 218 218 219 219 218 217 215 213 211 211 211 211 211 212 213 215 216 217
314 314 315 315 315 316 316 316 317 317 318 318 318 318 317 316 316 316 314 314 313 312 310 309 307 296 278 269 276 287 293 300 314 327 335 343 354 3 6 4 2 1 360 356 349 334 289 229 207 199 196 196 197 198 201 205 208 211 214 215 216 217 216 215 217 219 218 216 216 217 216 214 214 214 213 211 210 210 211 212 212 213 215 216 217
315 315 315 316 317 317 317 318 318 319 319 319 319 318 318 317 317 317 316 315 315 314 312 310 305 290 267 259 267 280 282 283 301 322 335 347 358 6 8 8 6 4 2 360 354 342 309 224 192 179 174 174 177 180 184 190 197 202 206 209 212 215 216 216 217 219 218 217 216 217 215 213 212 212 211 210 210 210 211 212 213 214 215 217 218
316 316 316 317 317 318 318 319 320 320 320 319 319 319 319 319 319 318 317 317 317 316 315 312 307 291 266 253 258 271 273 270 282 311 338 355 3 6 6 8 8 8 6 3 358 350 334 224 185 172 164 162 160 159 164 170 175 183 193 198 202 209 214 215 215 217 217 217 217 216 215 213 211 210 210 209 209 210 211 212 214 215 216 217 219
317 317 317 318 318 319 320 321 321 321 320 319 320 320 320 320 320 320 321 320 319 318 317 315 310 294 265 250 254 264 265 266 272 289 335 359 6 8 7 7 7 6 6 6 2 358 354 185 174 166 159 153 148 148 155 158 155 159 179 189 193 203 210 212 213 215 216 216 216 215 214 212 210 209 208 208 209 209 211 213 214 215 216 217 218
317 317 318 319 320 321 321 321 321 321 320 320 320 321 322 322 323 323 323 322 321 322 320 317 314 295 254 242 250 259 266 275 277 279 339 7 11 10 7 6 5 3 1 1 3 3 6 148 160 159 154 147 143 144 147 145 140 144 170 188 196 204 210 211 213 214 215 214 214 214 213 211 209 207 207 207 208 209 210 212 214 216 216 217 219
318 319 320 321 322 322 322 322 321 321 320 320 322 323 323 324 326 326 326 326 327 329 327 323 321 294 224 224 240 259 280 297 295 278 12 25 20 11 5 6 7 4 358 357 4 10 25 144 154 155 151 144 140 139 139 138 142 158 180 193 200 206 209 211 214 215 215 214 213 212 211 209 207 205 205 206 208 209 210 211 214 216 217 218 219
319 321 322 323 323 323 322 322 321 321 321 322 324 325 326 327 329 330 331 332 336 341 342 339 341 166 183 202 229 264 314 343 347 110 69 44 26 12 7 8 7 2 356 357 12 29 82 139 145 148 147 144 141 139 137 140 154 175 191 201 205 206 207 209 212 213 213 212 211 210 207 205 204 203 203 204 206 208 209 211 212 214 216 218 220
322 324 324 324 324 323 322 321 321 322 323 325 328 329 328 330 332 335 337 341 349 357 2 7 69 138 162 186 218 319 3 17 56 100 84 52 27 16 12 8 4 3 8 21 46 78 118 135 140 144 146 144 142 138 136 143 163 184 200 209 211 205 202 206 208 206 205 205 204 203 202 201 201 200 201 203 205 207 208 210 211 212 213 216 219
324 325 325 324 324 323 322 321 321 323 325 328 331 331 330 332 336 340 344 352 3 11 17 41 110 135 148 153 61 25 28 49 84 97 82 55 36 24 16 9 8 17 39 69 94 111 123 130 135 140 140 137 135 135 141 156 175 188 197 207 208 196 192 198 202 199 196 195 196 197 198 198 198 199 200 202 204 205 207 208 209 210 211 214 216
326 325 325 324 324 323 322 322 323 325 328 332 334 334 333 335 340 346 355 4 12 22 39 70 113 134 135 105 52 44 58 80 97 95 76 58 46 34 27 28 38 55 74 93 104 112 119 124 131 136 136 134 136 142 150 159 168 170 171 178 184 183 185 189 192 191 190 189 190 192 195 196 197 198 200 202 204 205 206 207 208 208 210 213 216
326 326 326 325 325 324 323 323 325 329 333 336 337 336 335 338 345 357 11 15 16 32 62 90 119 133 121 83 63 71 88 100 103 92 74 63 59 57 61 68 75 81 88 96 100 104 107 111 119 127 130 132 136 142 143 139 139 141 144 151 162 170 178 181 178 179 184 188 189 191 193 195 197 198 199 201 204 206 207 208 208 209 211 214 217
327 327 327 326 326 325 325 326 329 334 337 339 339 337 336 340 351 11 27 30 32 54 81 101 121 124 105 83 84 97 106 108 103 90 78 76 80 82 84 86 87 88 91 95 97 96 94 94 97 105 112 111 107 107 110 114 113 109 107 112 126 138 146 151 157 166 177 185 188 190 193 194 196 197 198 200 204 207 208 209 211 212 214 216 218